{"data":{"norad_id":51988,"epoch":"2026-09-19T15:30:50.082336Z","epoch_age_seconds":129956,"freshness":"FRESH","line1":"1 51988U 22025AJ  26262.64641299  .00019971  00000+0  65335-3 0  9992","line2":"2 51988  53.1580 235.8388 0001179  88.1438 271.9698 15.31711219250518","mean_motion":15.31711219,"eccentricity":0.0001179,"inclination_deg":53.158,"raan_deg":235.8388,"arg_perigee_deg":88.1438,"mean_anomaly_deg":271.9698,"bstar":0.00065335,"rev_number":25051,"period_min":94.012499362649,"perigee_km":469.89907351976,"apogee_km":471.51403082937,"semimajor_km":6848.8435521746,"source":"CELESTRAK","updated_at":"2026-09-20T09:00:39.980609Z"}}